Location: Central Falls
(41.8900°N, 71.3929°W)
Time: 11:49:08
(UTC+00:00)

A-11 Canister half - Pass Details

Date: 06 December 2023
Orbit: 1512 x 1687 km, 47.2° (Epoch: 20 February)

Event Time Altitude Azimuth Distance (km) Brightness Sun altitude
Rises 11:38:41 0° 297° (WNW) 4,887 - -4.1°
Exits shadow 11:40:08 - 294° (WNW) 4,462 10.7 -3.8°
Reaches altitude 10° 11:42:02 10° 290° (WNW) 3,916 10.5 -3.5°
Maximum altitude 11:51:10 41° 225° (SW) 2,274 9.8 -2.0°
Drops below altitude 10° 12:00:24 10° 159° (SSE) 3,940 12.1 -0.5°
Sets 12:03:48 0° 153° (SSE) 4,919 12.8 0.0°
